Location: Cary
(35.7910°N, 78.7810°W)
Time: 12:33:21
(UTC-05:00)

N. Korean satellite - Pass Details

Date: 06 December 2021
Orbit: 447 x 491 km, 97.3° (Epoch: 25 January)

Event Time Altitude Azimuth Distance (km) Brightness Sun altitude
Rises 05:13:04 0° 16° (NNE) 2,453 10.2 -23.4°
Reaches altitude 10° 05:15:08 10° 21° (NNE) 1,577 9.2 -22.9°
Maximum altitude 05:18:26 54° 100° (E) 547 7.1 -22.3°
Drops below altitude 10° 05:21:44 10° 179° (S) 1,569 9.3 -21.6°
Sets 05:23:47 0° 184° (S) 2,440 10.2 -21.2°
